CW7091 Weather Reports


time (UTC)temp
F
wind
direction
speed
knots
gust
knots
rain 1hr
in
rain 24hr
in
rain mn
in
humidity
%
barometer
mb
20260505022732 75 310 0.0 0.0 0.00 0.00 0.00 51 1008.2
20260505022229 76 303 0.0 0.0 0.00 0.00 0.00 51 1008.2
20260505021726 76 303 0.0 0.0 0.00 0.00 0.00 49 1008.3
20260505021223 77 303 0.0 0.0 0.00 0.00 0.00 48 1008.1
20260505020719 77 286 0.0 0.0 0.00 0.00 0.00 45 1008.3
20260505020214 78 285 0.0 0.0 0.00 0.00 0.00 46 1008.0
20260505015712 79 285 0.0 0.0 0.00 0.00 0.00 47 1008.2
20260505015209 79 288 0.0 0.0 0.00 0.00 0.00 44 1008.2
20260505014705 79 281 0.0 0.9 0.00 0.00 0.00 45 1008.1
20260505014203 80 285 0.0 0.0 0.00 0.00 0.00 42 1008.2
20260505013659 80 342 0.9 1.7 0.00 0.00 0.00 41 1008.2
20260505013151 80 296 1.7 2.6 0.00 0.00 0.00 41 1008.3
20260505012649 81 282 0.9 1.7 0.00 0.00 0.00 40 1008.2
20260505012146 82 300 0.0 0.9 0.00 0.00 0.00 40 1008.5
20260505011642 82 287 1.7 1.7 0.00 0.00 0.00 38 1008.4
20260505011139 82 303 0.0 0.0 0.00 0.00 0.00 39 1008.2
20260505010639 82 291 0.9 0.9 0.00 0.00 0.00 39 1008.4
20260505010137 83 295 1.7 1.7 0.00 0.00 0.00 37 1008.5
20260505005632 83 289 3.5 4.3 0.00 0.00 0.00 37 1008.4
20260505005130 84 304 0.0 0.9 0.00 0.00 0.00 37 1008.6
20260505004627 84 287 0.9 0.9 0.00 0.00 0.00 34 1008.5
20260505004123 84 298 2.6 2.6 0.00 0.00 0.00 36 1008.6
20260505003621 83 299 0.0 0.9 0.00 0.00 0.00 36 1008.5
20260505003118 83 317 0.0 0.0 0.00 0.00 0.00 38 1008.7
20260505002614 83 304 1.7 2.6 0.00 0.00 0.00 37 1008.6
20260505002113 83 312 2.6 2.6 0.00 0.00 0.00 37 1008.5
20260505001609 83 278 0.9 0.9 0.00 0.00 0.00 37 1008.4
20260505001107 84 338 0.0 0.9 0.00 0.00 0.00 37 1008.6
20260505000604 84 272 0.0 0.0 0.00 0.00 0.00 35 1009.0
20260504235558 84 295 1.7 1.7 0.00 0.00 0.00 36 1008.5
20260504235054 85 275 0.9 0.9 0.00 0.00 0.00 35 1008.8
20260504234551 85 280 3.5 5.2 0.00 0.00 0.00 34 1008.4
20260504234049 85 275 0.9 1.7 0.00 0.00 0.00 38 1008.8
20260504233543 83 308 1.7 1.7 0.00 0.00 0.00 38 1008.6
20260504233040 84 300 0.9 1.7 0.00 0.00 0.00 39 1008.7
20260504232538 83 4 0.9 0.9 0.00 0.00 0.00 40 1008.7
20260504232036 83 183 0.9 0.9 0.00 0.00 0.00 37 1008.7
20260504231532 83 333 0.0 0.0 0.00 0.00 0.00 42 1008.9
20260504231028 82 303 0.9 1.7 0.00 0.00 0.00 40 1008.8
20260504230525 83 323 2.6 4.3 0.00 0.00 0.00 38 1008.8
20260504230024 83 323 0.0 0.0 0.00 0.00 0.00 40 1008.6
20260504225520 83 263 0.0 0.9 0.00 0.00 0.00 38 1008.9
20260504225017 83 210 0.9 0.9 0.00 0.00 0.00 42 1008.8
20260504224514 82 46 1.7 2.6 0.00 0.00 0.00 38 1008.9
20260504224011 82 358 2.6 4.3 0.00 0.00 0.00 40 1008.9
20260504223508 83 292 0.0 0.0 0.00 0.00 0.00 38 1008.9
20260504223004 83 248 0.0 0.0 0.00 0.00 0.00 38 1009.0
20260504222500 83 326 0.9 1.7 0.00 0.00 0.00 40 1009.2
20260504221958 84 353 2.6 5.2 0.00 0.00 0.00 37 1009.3
20260504221455 84 281 0.0 0.9 0.00 0.00 0.00 41 1009.1
20260504220952 84 313 2.6 4.3 0.00 0.00 0.00 37 1009.1
20260504220448 83 307 0.9 1.7 0.00 0.00 0.00 39 1009.3
20260504215945 83 280 1.7 2.6 0.00 0.00 0.00 40 1009.3
20260504215442 83 292 1.7 1.7 0.00 0.00 0.00 40 1009.4
20260504214939 83 318 1.7 1.7 0.00 0.00 0.00 41 1009.5
20260504214435 82 281 0.0 0.9 0.00 0.00 0.00 43 1009.3
20260504213932 82 314 0.9 0.9 0.00 0.00 0.00 42 1009.4
20260504213428 82 289 1.7 1.7 0.00 0.00 0.00 41 1009.4
20260504212926 82 334 1.7 1.7 0.00 0.00 0.00 40 1009.3
20260504212421 81 339 1.7 2.6 0.00 0.00 0.00 43 1009.3
20260504211919 81 39 0.9 1.7 0.00 0.00 0.00 41 1009.5
20260504211415 82 155 0.9 0.9 0.00 0.00 0.00 40 1009.3
20260504210912 82 294 2.6 2.6 0.00 0.00 0.00 42 1009.5
20260504210409 82 259 0.0 0.0 0.00 0.00 0.00 41 1009.5
20260504205907 82 326 4.3 7.0 0.00 0.00 0.00 42 1009.6
20260504205404 82 288 0.9 0.9 0.00 0.00 0.00 44 1009.6
20260504204902 81 7 0.0 0.9 0.00 0.00 0.00 45 1009.6
20260504204400 81 280 0.0 0.0 0.00 0.00 0.00 41 1009.6
20260504203900 81 323 0.0 0.0 0.00 0.00 0.00 43 1009.7
20260504203356 81 287 1.7 2.6 0.00 0.00 0.00 41 1009.9
20260504202852 80 159 2.6 2.6 0.00 0.00 0.00 43 1009.9
20260504202349 80 161 0.9 0.9 0.00 0.00 0.00 45 1009.8
20260504201845 80 57 1.7 1.7 0.00 0.00 0.00 44 1009.7
20260504201343 80 288 2.6 2.6 0.00 0.00 0.00 45 1009.9
20260504200840 80 227 0.9 0.9 0.00 0.00 0.00 48 1009.9
20260504200331 80 260 0.9 1.7 0.00 0.00 0.00 44 1009.8
20260504195827 80 161 0.9 0.9 0.00 0.00 0.00 44 1009.9
20260504195323 80 294 1.7 1.7 0.00 0.00 0.00 46 1009.9
20260504194820 80 250 1.7 1.7 0.00 0.00 0.00 43 1009.8
20260504194316 79 281 0.0 0.0 0.00 0.00 0.00 45 1009.8
20260504193812 79 321 0.9 0.9 0.00 0.00 0.00 48 1009.9
20260504193310 79 330 0.9 1.7 0.00 0.00 0.00 47 1010.0
20260504192808 79 311 0.9 1.7 0.00 0.00 0.00 46 1010.1
20260504192306 80 312 0.0 0.9 0.00 0.00 0.00 46 1009.9
20260504191805 79 41 1.7 1.7 0.00 0.00 0.00 47 1010.1
20260504191301 78 277 0.9 1.7 0.00 0.00 0.00 48 1010.2
20260504190757 80 288 4.3 5.2 0.00 0.00 0.00 44 1010.1
20260504190253 79 156 0.0 0.0 0.00 0.00 0.00 47 1010.2
20260504185750 80 143 2.6 2.6 0.00 0.00 0.00 45 1010.3
20260504185247 80 154 0.0 0.9 0.00 0.00 0.00 45 1010.1
20260504184743 78 155 1.7 1.7 0.00 0.00 0.00 45 1010.1
20260504184239 78 155 1.7 2.6 0.00 0.00 0.00 47 1010.3
20260504183735 78 111 0.0 0.0 0.00 0.00 0.00 47 1010.2
20260504183232 78 131 2.6 2.6 0.00 0.00 0.00 47 1010.4
20260504182730 78 150 2.6 2.6 0.00 0.00 0.00 45 1010.3
20260504182227 77 151 0.9 1.7 0.00 0.00 0.00 47 1010.1
20260504181725 78 150 0.9 0.9 0.00 0.00 0.00 48 1010.3
20260504181222 77 57 0.0 0.0 0.00 0.00 0.00 48 1010.4
20260504180721 77 298 0.0 0.0 0.00 0.00 0.00 51 1010.5
20260504180219 77 70 0.9 1.7 0.00 0.00 0.00 50 1010.6
20260504175716 76 143 0.0 0.0 0.00 0.00 0.00 51 1010.4
20260504175213 76 143 0.9 0.9 0.00 0.00 0.00 51 1010.4
20260504174711 76 144 0.9 0.9 0.00 0.00 0.00 51 1010.3
20260504174209 77 140 0.0 0.0 0.00 0.00 0.00 50 1010.4
20260504173704 76 140 0.0 0.0 0.00 0.00 0.00 51 1010.2
20260504173202 76 140 1.7 1.7 0.00 0.00 0.00 50 1010.5
20260504172658 75 140 0.0 0.9 0.00 0.00 0.00 52 1010.3
20260504172155 74 140 0.0 0.0 0.00 0.00 0.00 52 1010.3
20260504171651 74 140 0.0 0.0 0.00 0.00 0.00 55 1010.5
20260504171148 74 139 0.0 0.0 0.00 0.00 0.00 54 1010.4
20260504170645 74 139 0.0 0.0 0.00 0.00 0.00 55 1010.5
20260504170143 73 139 0.0 0.0 0.00 0.00 0.00 57 1010.4
20260504151022 54 143 0.9 1.7 0.00 0.00 0.00 98 1010.3
20260504150519 53 145 0.0 0.0 0.00 0.00 0.00 99 1010.2
20260504140951 49 146 0.0 0.0 0.00 0.00 0.00 99 1009.9
20260504140447 49 146 0.0 0.0 0.00 0.00 0.00 99 1010.1
20260504130412 47 146 0.0 0.0 0.00 0.00 0.00 99 1009.7
20260504110259 48 146 0.0 0.0 0.00 0.00 0.00 99 1009.4
20260504100217 49 146 0.0 0.0 0.00 0.00 0.00 99 1009.1
20260504090140 50 146 0.0 0.0 0.00 0.00 0.00 99 1009.1
20260504081610 52 146 0.0 0.0 0.00 0.00 0.00 99 1009.2
20260504081105 52 146 0.0 0.0 0.00 0.00 0.00 99 1009.4
20260504080603 52 146 0.0 0.0 0.00 0.00 0.00 99 1009.5
20260504050415 59 146 0.0 0.0 0.00 0.00 0.00 92 1009.1
20260504045912 59 146 0.0 0.0 0.00 0.00 0.00 91 1009.0
20260504045408 60 146 0.0 0.0 0.00 0.00 0.00 90 1009.1
20260504044904 60 146 0.0 0.0 0.00 0.00 0.00 89 1009.0
20260504044402 61 146 0.0 0.0 0.00 0.00 0.00 88 1009.0
20260504043859 61 146 0.0 0.0 0.00 0.00 0.00 88 1009.0
20260504043356 61 146 0.0 0.0 0.00 0.00 0.00 88 1009.1
20260504042853 62 146 0.0 0.0 0.00 0.00 0.00 87 1008.9
20260504042349 62 146 0.0 0.0 0.00 0.00 0.00 85 1008.8
20260504041846 63 146 0.0 0.0 0.00 0.00 0.00 81 1008.8
20260504041342 64 146 0.0 0.9 0.00 0.00 0.00 81 1008.6
20260504040838 64 137 1.7 1.7 0.00 0.00 0.00 78 1008.6
20260504040336 64 130 0.0 0.9 0.00 0.00 0.00 79 1008.8
20260504035831 65 130 0.0 0.0 0.00 0.00 0.00 74 1008.7
20260504035330 66 130 0.0 0.0 0.00 0.00 0.00 72 1008.7
20260504034826 66 130 0.0 0.0 0.00 0.00 0.00 72 1008.5
20260504034324 67 130 0.0 0.0 0.00 0.00 0.00 71 1008.6
20260504033821 68 130 0.0 0.0 0.00 0.00 0.00 69 1008.4
20260504033319 69 130 0.0 0.0 0.00 0.00 0.00 68 1008.6
20260504032815 70 130 0.9 0.9 0.00 0.00 0.00 66 1008.5
20260504032313 71 355 0.0 0.0 0.00 0.00 0.00 61 1008.5
20260504031809 72 355 0.0 0.0 0.00 0.00 0.00 60 1008.3
20260504031307 73 330 0.0 0.0 0.00 0.00 0.00 58 1008.4
20260504030803 73 320 0.9 0.9 0.00 0.00 0.00 58 1008.3
20260504030300 73 319 0.0 0.0 0.00 0.00 0.00 59 1008.4
20260504025756 74 319 0.0 0.0 0.00 0.00 0.00 57 1008.2
20260504025253 74 329 0.0 0.0 0.00 0.00 0.00 57 1008.3
20260504024749 75 329 0.9 0.9 0.00 0.00 0.00 56 1008.4
20260504024246 75 331 0.9 1.7 0.00 0.00 0.00 55 1008.1
20260504023743 76 304 0.0 0.0 0.00 0.00 0.00 55 1008.0
20260504023239 77 295 0.0 0.0 0.00 0.00 0.00 54 1008.2